This demonstration page uses our WeatherBlox Daily Observations layout. Learn more.

Left ArrowRight Arrow

Hourly Observations for November 12, 2021

Temp ( °F °C ) Dew Point ( °F °C ) Humidity (%) Winds ( mph kmh ) Pressure ( in mb ) Visibility ( mi km ) Precip ( " mm )
12:19 am 00:19 Partly Cloudy 57 13.9 55 12.8 93 93 W 3 6 30.04 1017 10 16 0.00 0.00
12:53 am 00:53 Mostly Clear 56 13.3 54 12.2 93 93 VRB 3 6 30.02 1017 10 16 0.00 0.00
1:53 am 01:53 Clear 54 12.2 52 11.1 93 93 W 3 6 30.04 1017 10 16 0.00 0.00
2:53 am 02:53 Clear 53 11.7 51 10.6 93 93 W 3 6 30.05 1018 10 16 0.00 0.00
3:53 am 03:53 Clear 51 10.6 49 9.4 92 92 NW 6 9 30.07 1018 10 16 0.00 0.00
4:53 am 04:53 Clear 50 10 47 8.3 89 89 Calm 30.09 1019 10 16 0.00 0.00
5:53 am 05:53 Clear 49 9.4 47 8.3 93 93 Calm 30.11 1020 10 16 0.00 0.00
6:53 am 06:53 Clear 47 8.3 45 7.2 93 93 Calm 30.10 1019 10 16 0.00 0.00
7:25 am 07:25 Mostly Cloudy with Mist and Fog 45 7.2 45 7.2 100 100 Calm 30.12 1020 1 1 0.00 0.00
7:27 am 07:27 Sunny 45 7.2 45 7.2 100 100 Calm 30.12 1020 10 16 0.00 0.00
7:53 am 07:53 Sunny 46 7.8 46 7.8 100 100 Calm 30.09 1019 10 16 0.00 0.00
8:53 am 08:53 Sunny 51 10.6 50 10 96 96 Calm 30.11 1020 10 16 0.00 0.00
9:53 am 09:53 Sunny 57 13.9 51 10.6 81 81 Calm 30.13 1020 10 16 0.00 0.00
10:53 am 10:53 Sunny 60 15.6 44 6.7 56 56 VRB 7 11 30.13 1020 10 16 0.00 0.00
11:53 am 11:53 Sunny 62 16.7 40 4.4 44 44 Calm 30.10 1019 10 16 0.00 0.00
12:53 pm 12:53 Sunny 65 18.3 38 3.3 37 37 W 9 15 30.06 1018 10 16 0.00 0.00
1:53 pm 13:53 Sunny 67 19.4 35 1.7 31 31 VRB 5 7 30.03 1017 10 16 0.00 0.00
2:53 pm 14:53 Sunny 68 20 36 2.2 31 31 WSW 7 11 30.02 1017 10 16 0.00 0.00
3:53 pm 15:53 Sunny 68 20 36 2.2 31 31 VRB 6 9 30.01 1016 10 16 0.00 0.00
4:53 pm 16:53 Sunny 66 18.9 36 2.2 33 33 W 5 7 30.01 1016 10 16 0.00 0.00
5:53 pm 17:53 Clear 60 15.6 41 5 50 50 Calm 30.02 1017 10 16 0.00 0.00
6:53 pm 18:53 Clear 53 11.7 44 6.7 72 72 Calm 30.03 1017 10 16 0.00 0.00
7:53 pm 19:53 Clear 51 10.6 44 6.7 77 77 Calm 30.03 1017 10 16 0.00 0.00
8:53 pm 20:53 Clear 49 9.4 45 7.2 86 86 Calm 30.03 1017 10 16 0.00 0.00
9:53 pm 21:53 Clear 47 8.3 44 6.7 90 90 Calm 30.03 1017 10 16 0.00 0.00
10:53 pm 22:53 Clear 45 7.2 43 6.1 93 93 Calm 30.02 1017 10 16 0.00 0.00
11:53 pm 23:53 Clear 46 7.8 43 6.1 89 89 Calm 30.01 1016 10 16 0.00 0.00

Powered by AerisWeather